Holland, MI

3:32 AM EDT on July 25, 2016 (GMT -0400)
Tulip City

Weather History for KBIV - April, 2014

Change the Weather History Date:

Saturday, April 5, 2014

  Actual Average Record
Temperature  
Mean Temperature 39 °F 44 °F  
Max Temperature 44 °F 54 °F 72 °F (2005)
Min Temperature 33 °F 35 °F 15 °F (1975)
Degree Days  
Heating Degree Days 26 21  
Month to date heating degree days 121 108  
Since 1 July heating degree days 6405 5482  
Cooling Degree Days 0 0  
Month to date cooling degree days 0 0  
Year to date cooling degree days 0 0  
Moisture  
Dew Point 25 °F    
Average Humidity 60    
Maximum Humidity 82    
Minimum Humidity 37    
Precipitation  
Precipitation 0.00 in 0.08 in 1.20 in (1985)
Month to date precipitation 0.52 0.37  
Year to date precipitation 5.62 6.53  
Sea Level Pressure  
Sea Level Pressure 30.11 in    
Wind  
Wind Speed 9 mph (WNW)    
Max Wind Speed 22 mph    
Max Gust Speed 32 mph    
Visibility 10 miles    
Events      
T = Trace of Precipitation, MM = Missing Value Source: NWS Daily Summary

Daily Weather History Graph

Daily Weather History Graph

Search for Another Location

Airport or City:

Trip Planner

Search our weather history database for the weather conditions in past years. The results will help you decide how hot, cold, wet, or windy it might be!

Date:

Astronomy

Apr. 05, 2014 Rise Set
Actual Time 7:19 AM EDT 8:15 PM EDT
Civil Twilight 6:50 AM EDT 8:43 PM EDT
Nautical Twilight 6:16 AM EDT 9:18 PM EDT
Astronomical Twilight 5:41 AM EDT 9:54 PM EDT
Moon 11:22 AM EDT (4/5) 1:29 AM EDT (4/5)
Length of Visible Light 13h 52m
Length of Day
12h 55m
Waxing Crescent, 34% of the Moon is Illuminated
Apr 5
Waxing Crescent
Apr 7
First Quarter
Apr 15
Full
Apr 22
Last Quarter
Apr 29
New

Hourly Weather History & Observations

Time (EDT) Temp. Windchill Dew Point Humidity Pressure Visibility Wind Dir Wind Speed Gust Speed Precip Events Conditions
12:53 AM 33.1 °F 23.0 °F 28.0 °F 82% 29.91 in 10.0 mi WNW 15.0 mph 21.9 mph N/A   Overcast
1:53 AM 33.1 °F 23.0 °F 26.1 °F 75% 29.94 in 10.0 mi NW 15.0 mph 27.6 mph N/A   Overcast
2:34 AM 33.1 °F 23.0 °F 24.1 °F 70% 29.95 in 10.0 mi NW 15.0 mph 24.2 mph N/A   Mostly Cloudy
2:53 AM 33.1 °F 21.9 °F 24.1 °F 70% 29.99 in 10.0 mi NW 18.4 mph 25.3 mph N/A   Overcast
3:21 AM 33.1 °F 24.9 °F 26.1 °F 75% 29.97 in 10.0 mi NW 10.4 mph 21.9 mph N/A   Overcast
3:53 AM 34.0 °F 23.8 °F 26.1 °F 73% 30.00 in 10.0 mi WNW 16.1 mph 25.3 mph N/A   Overcast
4:19 AM 34.0 °F 25.0 °F 25.0 °F 70% 29.99 in 10.0 mi WNW 12.7 mph 19.6 mph N/A   Overcast
4:53 AM 34.0 °F 25.5 °F 26.1 °F 73% 30.03 in 10.0 mi WNW 11.5 mph - N/A   Overcast
5:53 AM 34.0 °F 27.2 °F 27.0 °F 75% 30.05 in 10.0 mi WNW 8.1 mph - N/A   Overcast
6:53 AM 34.0 °F 27.2 °F 26.1 °F 73% 30.08 in 10.0 mi WNW 8.1 mph - N/A   Overcast
7:03 AM 34.0 °F 25.5 °F 26.1 °F 73% 30.06 in 10.0 mi WNW 11.5 mph - N/A   Overcast
7:48 AM 33.8 °F 27.0 °F 24.8 °F 70% 30.09 in 10.0 mi NW 8.1 mph 18.4 mph N/A   Scattered Clouds
7:53 AM 34.0 °F 26.6 °F 24.1 °F 67% 30.11 in 10.0 mi NW 9.2 mph - N/A   Scattered Clouds
8:21 AM 34.0 °F 27.2 °F 26.1 °F 73% 30.10 in 10.0 mi WNW 8.1 mph - N/A   Mostly Cloudy
8:35 AM 34.0 °F 27.2 °F 26.1 °F 73% 30.11 in 10.0 mi WNW 8.1 mph - N/A   Scattered Clouds
8:53 AM 35.1 °F 28.6 °F 25.0 °F 67% 30.14 in 10.0 mi NW 8.1 mph - N/A   Scattered Clouds
9:53 AM 36.0 °F 28.0 °F 25.0 °F 64% 30.17 in 10.0 mi WNW 11.5 mph 17.3 mph N/A   Partly Cloudy
10:53 AM 36.0 °F 28.0 °F 26.1 °F 67% 30.19 in 10.0 mi WNW 11.5 mph 19.6 mph N/A   Scattered Clouds
11:53 AM 37.0 °F 28.1 °F 25.0 °F 62% 30.20 in 10.0 mi WNW 15.0 mph 20.7 mph N/A   Clear
12:53 PM 37.9 °F 30.0 °F 28.0 °F 68% 30.21 in 10.0 mi WNW 12.7 mph - N/A   Clear
1:53 PM 39.0 °F 32.3 °F 27.0 °F 62% 30.22 in 10.0 mi WNW 10.4 mph 19.6 mph N/A   Clear
2:53 PM 39.9 °F 33.4 °F 24.1 °F 53% 30.21 in 10.0 mi West 10.4 mph - N/A   Clear
3:53 PM 39.9 °F 33.9 °F 26.1 °F 58% 30.22 in 10.0 mi WNW 9.2 mph - N/A   Clear
4:53 PM 42.1 °F 37.1 °F 24.1 °F 49% 30.21 in 10.0 mi NW 8.1 mph - N/A   Clear
5:53 PM 43.0 °F 40.3 °F 21.0 °F 42% 30.20 in 10.0 mi Variable 4.6 mph - N/A   Clear
6:53 PM 44.1 °F 42.5 °F 19.0 °F 37% 30.19 in 10.0 mi Variable 3.5 mph - N/A   Clear
7:53 PM 42.1 °F - 19.9 °F 41% 30.19 in 10.0 mi Calm Calm - N/A   Clear
8:53 PM 39.0 °F 35.7 °F 21.9 °F 50% 30.19 in 10.0 mi SE 4.6 mph - N/A   Clear
9:53 PM 36.0 °F 33.3 °F 25.0 °F 64% 30.20 in 10.0 mi SSE 3.5 mph - N/A   Clear
10:53 PM 34.0 °F 29.8 °F 24.1 °F 67% 30.20 in 10.0 mi SSE 4.6 mph - N/A   Clear
11:53 PM 34.0 °F 28.8 °F 24.1 °F 67% 30.20 in 10.0 mi South 5.8 mph - N/A   Clear